Location: Caltech
(34.1382°N, 118.1253°W)
Time: 06:44:32
(UTC-07:00)

Gbstr 26 Del rocket - Visible Passes

Search period start: 01 September 2014 00:00
Search period end: 11 September 2014 00:00
Orbit: 494 x 1278 km, 51.8° (Epoch: 31 August)

Date Brightness Start Highest point End Pass type
(mag) Time Alt. Az. Time Alt. Az. Time Alt. Az.
01 Sep 5.0 04:23:23 26° S 04:25:54 38° SE 04:32:09 10° ENE visible
02 Sep 4.5 04:21:36 37° S 04:23:25 49° SE 04:30:02 10° NE visible
03 Sep 4.0 04:19:44 52° S 04:21:00 65° SE 04:27:49 10° NE visible
04 Sep 3.7 04:17:48 68° SSW 04:18:38 83° SE 04:25:33 10° NE visible
04 Sep 5.3 06:01:25 10° W 06:06:53 30° NNW 06:13:17 10° NE visible
05 Sep 6.4 02:33:06 12° E 02:33:06 12° E 02:33:44 10° E visible
05 Sep 3.7 04:15:49 73° W 04:16:19 78° NW 04:23:14 10° NE visible
05 Sep 5.5 05:59:36 10° WNW 06:04:51 26° NNW 06:10:55 10° NE visible
06 Sep 6.3 02:31:04 14° ENE 02:31:04 14° ENE 02:32:05 10° ENE visible
06 Sep 3.9 04:13:47 61° NW 04:14:03 62° NW 04:20:52 10° NE visible
06 Sep 5.7 05:57:50 10° WNW 06:02:52 23° NNW 06:08:36 10° NE visible
07 Sep 6.3 02:28:59 15° ENE 02:28:59 15° ENE 02:30:10 10° ENE visible
07 Sep 4.2 04:11:41 49° NW 04:11:51 50° NW 04:18:29 10° NE visible
07 Sep 5.8 05:56:06 10° WNW 06:00:54 21° NNW 06:06:19 10° NE visible
08 Sep 6.3 02:26:51 16° ENE 02:26:51 16° ENE 02:28:06 10° ENE visible
08 Sep 4.6 04:09:33 40° NW 04:09:42 40° NNW 04:16:05 10° NE visible
08 Sep 5.9 05:54:21 10° NW 05:58:57 20° N 06:04:06 10° NE visible
09 Sep 6.3 02:24:41 16° NE 02:24:41 16° NE 02:25:56 10° NE visible
09 Sep 4.9 04:07:23 33° NNW 04:07:36 33° NNW 04:13:41 10° NE visible
09 Sep 6.0 05:52:34 10° NW 05:57:01 19° N 06:01:58 10° NE visible
10 Sep 6.3 02:22:30 16° NE 02:22:30 16° NE 02:23:40 10° NE visible
10 Sep 5.1 04:05:12 28° NNW 04:05:31 28° NNW 04:11:17 10° NE visible
10 Sep 6.1 05:50:44 10° NW 05:55:05 18° N 05:59:55 10° NE visible
